Change the Weather History Date:

Friday, August 30, 2013

  Actual Average Record
Temperature  
Mean Temperature 82 °F -  
Max Temperature 98 °F 88 °F 100 °F (1970)
Min Temperature 67 °F 56 °F 37 °F (1964)
Cooling Degree Days 17    
Growing Degree Days 32 (Base 50)    
Moisture  
Dew Point 60 °F    
Average Humidity 53    
Maximum Humidity 84    
Minimum Humidity 25    
Precipitation  
Precipitation 0.02 in - - ()
Sea Level Pressure  
Sea Level Pressure 30.05 in    
Wind  
Wind Speed 7 mph (ENE)    
Max Wind Speed 16 mph    
Max Gust Speed 39 mph    
Visibility 10 miles    
Events Rain , Thunderstorm    
Averages and records for this station are not official NWS values.
T = Trace of Precipitation, MM = Missing Value Source: NWS Daily Summary

Daily Weather History Graph

Daily Weather History Graph

Search for Another Location

Airport or City:

Trip Planner

Search our weather history database for the weather conditions in past years. The results will help you decide how hot, cold, wet, or windy it might be!

Date:

Astronomy

Aug. 30, 2013 Rise Set
Actual Time 6:11 AM MDT 7:22 PM MDT
Civil Twilight 5:43 AM MDT 7:50 PM MDT
Nautical Twilight 5:09 AM MDT 8:24 PM MDT
Astronomical Twilight 4:33 AM MDT 9:00 PM MDT
Moon 12:50 AM MDT (8/30) 3:41 PM MDT (8/30)
Length of Visible Light 14h 07m
Length of Day
13h 10m
Waning Crescent, 28% of the Moon is Illuminated
Aug 30
Waning Crescent
Sep 5
New
Sep 12
First Quarter
Sep 19
Full
Sep 26
Last Quarter

Hourly Weather History & Observations

Time (MDT) Temp. Heat Index Dew Point Humidity Pressure Visibility Wind Dir Wind Speed Gust Speed Precip Events Conditions
12:15 AM 75.9 °F - 58.1 °F 54% 30.05 in 10.0 mi ENE 4.6 mph - N/A   Clear
12:35 AM 74.5 °F - 58.3 °F 57% 30.06 in 10.0 mi ENE 4.6 mph - N/A   Clear
12:55 AM 74.7 °F - 59.0 °F 58% 30.05 in 10.0 mi NNE 4.6 mph - N/A   Clear
1:15 AM 73.2 °F - 60.1 °F 63% 30.05 in 10.0 mi ENE 3.5 mph - N/A   Clear
1:35 AM 70.7 °F - 59.0 °F 66% 30.05 in 10.0 mi NNE 5.8 mph - N/A   Clear
1:55 AM 73.2 °F - 60.1 °F 63% 30.05 in 10.0 mi NE 5.8 mph - N/A   Clear
2:15 AM 71.8 °F - 60.1 °F 67% 30.05 in 10.0 mi ENE 3.5 mph - N/A   Clear
2:35 AM 70.5 °F - 60.3 °F 70% 30.05 in 10.0 mi NE 4.6 mph - N/A   Clear
2:55 AM 71.1 °F - 61.0 °F 70% 30.06 in 10.0 mi NNE 4.6 mph - N/A   Clear
3:15 AM 71.1 °F - 61.3 °F 71% 30.05 in 10.0 mi NE 6.9 mph - N/A   Clear
3:35 AM 71.6 °F - 61.5 °F 70% 30.05 in 10.0 mi NE 5.8 mph - N/A   Clear
3:55 AM 72.0 °F - 62.1 °F 71% 30.05 in 10.0 mi NE 4.6 mph - N/A   Clear
4:15 AM 70.9 °F - 62.1 °F 74% 30.06 in 10.0 mi NE 3.5 mph - N/A   Clear
4:35 AM 70.2 °F - 62.6 °F 77% 30.05 in 10.0 mi NE 5.8 mph - N/A   Clear
4:55 AM 69.1 °F - 62.2 °F 79% 30.05 in 10.0 mi NE 5.8 mph - N/A   Clear
5:15 AM 70.2 °F - 63.5 °F 79% 30.06 in 10.0 mi NE 6.9 mph - N/A   Clear
5:35 AM 68.9 °F - 62.6 °F 80% 30.06 in 10.0 mi Calm Calm - N/A   Clear
5:55 AM 67.5 °F - 62.4 °F 84% 30.06 in 10.0 mi NE 4.6 mph - N/A   Clear
6:15 AM 67.5 °F - 62.6 °F 84% 30.07 in 10.0 mi NNE 3.5 mph - N/A   Clear
6:35 AM 68.0 °F - 63.0 °F 84% 30.07 in 10.0 mi NNE 3.5 mph - N/A   Clear
6:55 AM 69.8 °F - 64.4 °F 83% 30.08 in 10.0 mi NNE 5.8 mph - N/A   Clear
8:15 AM 79.5 °F - 65.3 °F 62% 30.10 in 10.0 mi NE 12.7 mph - N/A   Clear
8:35 AM 81.0 °F 82.7 °F 64.9 °F 58% 30.10 in 10.0 mi NE 11.5 mph - N/A   Clear
8:55 AM 83.1 °F 84.8 °F 64.8 °F 54% 30.10 in 10.0 mi ENE 10.4 mph - N/A   Clear
9:15 AM 85.3 °F 86.6 °F 64.4 °F 49% 30.10 in 10.0 mi ENE 9.2 mph - N/A   Clear
9:35 AM 86.0 °F 87.3 °F 64.4 °F 48% 30.09 in 10.0 mi NE 10.4 mph - N/A   Clear
9:55 AM 87.8 °F 88.8 °F 63.5 °F 44% 30.09 in 10.0 mi ENE 11.5 mph - N/A   Clear
10:15 AM 89.1 °F 90.0 °F 63.3 °F 42% 30.08 in 10.0 mi East 11.5 mph 16.1 mph N/A   Clear
10:35 AM 90.5 °F 91.1 °F 62.6 °F 39% 30.08 in 10.0 mi East 11.5 mph - N/A   Clear
10:55 AM 90.7 °F 92.1 °F 63.7 °F 41% 30.08 in 10.0 mi ESE 10.4 mph - N/A   Clear
11:15 AM 91.4 °F 92.4 °F 63.0 °F 39% 30.08 in 10.0 mi ESE 11.5 mph 16.1 mph N/A   Clear
11:35 AM 92.5 °F 93.0 °F 61.7 °F 36% 30.08 in 10.0 mi ESE 10.4 mph - N/A   Clear
11:55 AM 93.6 °F 93.8 °F 61.0 °F 34% 30.08 in 10.0 mi ESE 11.5 mph - N/A   Clear
12:15 PM 93.9 °F 93.6 °F 60.3 °F 32% 30.07 in 10.0 mi ESE 11.5 mph - N/A   Clear
12:35 PM 94.8 °F 94.5 °F 59.9 °F 31% 30.07 in 10.0 mi ESE 10.4 mph - N/A   Clear
12:55 PM 94.8 °F 94.5 °F 59.5 °F 31% 30.06 in 10.0 mi ESE 8.1 mph - N/A   Clear
1:15 PM 95.7 °F 95.1 °F 59.2 °F 29% 30.06 in 10.0 mi ESE 11.5 mph - N/A   Clear
1:35 PM 96.4 °F 95.7 °F 58.3 °F 28% 30.05 in 10.0 mi ESE 11.5 mph 18.4 mph N/A   Clear
1:55 PM 96.4 °F 95.0 °F 56.5 °F 26% 30.04 in 10.0 mi SE 8.1 mph - N/A   Clear
2:15 PM 97.2 °F 95.6 °F 55.8 °F 25% 30.04 in 10.0 mi ESE 9.2 mph - N/A   Clear
2:35 PM 97.3 °F 96.6 °F 57.7 °F 27% 30.03 in 10.0 mi East 9.2 mph - N/A   Clear
2:55 PM 96.8 °F 96.2 °F 58.3 °F 28% 30.02 in 10.0 mi ESE 8.1 mph - N/A   Clear
3:15 PM 97.9 °F 97.4 °F 58.1 °F 27% 30.01 in 10.0 mi East 8.1 mph - N/A   Clear
3:35 PM 97.9 °F 97.0 °F 57.6 °F 26% 30.00 in 10.0 mi East 9.2 mph - N/A   Clear
3:55 PM 96.6 °F 95.6 °F 57.7 °F 27% 29.99 in 10.0 mi SE 8.1 mph - N/A   Clear
4:15 PM 94.5 °F 93.6 °F 58.5 °F 30% 29.98 in 10.0 mi East 8.1 mph - N/A   Clear
4:35 PM 93.2 °F 92.6 °F 59.4 °F 32% 29.97 in 10.0 mi ESE 6.9 mph - N/A   Clear
4:55 PM 91.4 °F 91.4 °F 60.8 °F 36% 29.96 in 10.0 mi ESE 6.9 mph - N/A   Clear
5:15 PM 88.5 °F 87.8 °F 58.8 °F 37% 29.98 in 10.0 mi SW 15.0 mph 18.4 mph N/A   Clear
5:35 PM 86.4 °F - 52.7 °F 31% 30.00 in 10.0 mi SW 11.5 mph 16.1 mph N/A   Clear
5:55 PM 82.4 °F 81.6 °F 54.5 °F 38% 29.99 in 10.0 mi Calm Calm - N/A   Scattered Clouds
6:15 PM 82.6 °F 81.7 °F 54.7 °F 38% 29.97 in 10.0 mi East 5.8 mph - N/A   Scattered Clouds
6:35 PM 81.3 °F 81.2 °F 57.0 °F 43% 29.97 in 10.0 mi ESE 5.8 mph - N/A   Clear
6:55 PM 81.3 °F 81.0 °F 55.8 °F 41% 29.98 in 10.0 mi SSE 10.4 mph 17.3 mph N/A   Clear
7:15 PM 80.6 °F 80.6 °F 56.1 °F 43% 30.03 in 10.0 mi NNW 15.0 mph 39.1 mph N/A Thunderstorm Scattered Clouds
7:35 PM 78.3 °F - 59.4 °F 52% 30.03 in 10.0 mi North 16.1 mph 23.0 mph N/A Thunderstorm Scattered Clouds
7:55 PM 76.1 °F - 60.6 °F 59% 30.06 in 10.0 mi North 6.9 mph 17.3 mph N/A   Scattered Clouds
8:15 PM 75.6 °F - 59.9 °F 58% 30.06 in 10.0 mi NE 13.8 mph - N/A   Clear
8:35 PM 76.3 °F - 59.0 °F 55% 30.07 in 10.0 mi ENE 8.1 mph - N/A   Clear
8:55 PM 76.1 °F - 59.5 °F 56% 30.05 in 10.0 mi East 12.7 mph - N/A   Scattered Clouds
9:15 PM 76.5 °F - 59.9 °F 56% 30.04 in 10.0 mi ESE 13.8 mph 19.6 mph N/A   Clear
9:35 PM 75.6 °F - 59.5 °F 57% 30.03 in 10.0 mi ESE 12.7 mph - N/A   Clear
9:55 PM 75.9 °F - 58.6 °F 55% 30.06 in 10.0 mi East 6.9 mph - N/A   Scattered Clouds
10:15 PM 73.4 °F - 62.1 °F 68% 30.08 in 10.0 mi NE 4.6 mph - N/A Rain Light Rain
10:35 PM 71.6 °F - 63.5 °F 76% 30.07 in 10.0 mi NE 8.1 mph - 0.01 in Rain Rain
10:55 PM 70.5 °F - 63.7 °F 79% 30.07 in 10.0 mi ENE 9.2 mph - 0.02 in Rain Light Rain
11:15 PM 70.5 °F - 63.3 °F 78% 30.07 in 10.0 mi East 10.4 mph - N/A Thunderstorm Scattered Clouds
11:35 PM 70.0 °F - 63.5 °F 80% 30.06 in 10.0 mi East 12.7 mph - N/A   Clear
11:55 PM 69.4 °F - 63.5 °F 81% 30.07 in 10.0 mi East 10.4 mph - N/A   Clear